Sheldon, IA

8:28 AM CDT on May 30, 2017 (GMT -0500)
Sheldon Municipal

Weather History for KSHL - February, 2013

Change the Weather History Date:

Tuesday, February 5, 2013

  Actual Average Record
Temperature  
Mean Temperature 31 °F -  
Max Temperature 39 °F 24 °F 57 °F (2005)
Min Temperature 23 °F 6 °F -24 °F (1979)
Degree Days  
Heating Degree Days 34    
Moisture  
Dew Point 27 °F    
Average Humidity 92    
Maximum Humidity 100    
Minimum Humidity 70    
Precipitation  
Precipitation 0.00 in - - ()
Sea Level Pressure  
Sea Level Pressure 29.88 in    
Wind  
Wind Speed 11 mph (WNW)    
Max Wind Speed 20 mph    
Max Gust Speed 25 mph    
Visibility 9 miles    
Events      
Averages and records for this station are not official NWS values.
T = Trace of Precipitation, MM = Missing Value Source: NWS Daily Summary

Daily Weather History Graph

Daily Weather History Graph

Search for Another Location

Airport or City:

Trip Planner

Search our weather history database for the weather conditions in past years. The results will help you decide how hot, cold, wet, or windy it might be!

Date:

Astronomy

Feb. 05, 2013 Rise Set
Actual Time 7:33 AM CST 5:41 PM CST
Civil Twilight 7:04 AM CST 6:11 PM CST
Nautical Twilight 6:30 AM CST 6:45 PM CST
Astronomical Twilight 5:57 AM CST 7:18 PM CST
Moon 3:19 AM CST (2/5) 12:56 PM CST (2/5)
Length of Visible Light 11h 07m
Length of Day
10h 07m
Waning Crescent, 26% of the Moon is Illuminated
Feb 5
Waning Crescent
Feb 10
New
Feb 17
First Quarter
Feb 25
Full
Mar 4
Last Quarter

Hourly Weather History & Observations

Time (CST) Temp. Windchill Dew Point Humidity Pressure Visibility Wind Dir Wind Speed Gust Speed Precip Events Conditions
12:15 AM 23.0 °F 11.1 °F 23.0 °F 100% 29.76 in 10.0 mi South 12.7 mph - N/A   Scattered Clouds
12:35 AM 23.0 °F 11.1 °F 23.0 °F 100% 29.75 in 10.0 mi SSW 12.7 mph - N/A   Clear
12:55 AM 23.0 °F 11.7 °F 23.0 °F 100% 29.74 in 10.0 mi SSW 11.5 mph - N/A   Clear
1:15 AM 23.0 °F - 23.0 °F 100% 29.73 in - North - - N/A   Unknown
1:35 AM 23.0 °F 10.6 °F 23.0 °F 100% 29.73 in 10.0 mi SSW 13.8 mph - N/A   Partly Cloudy
1:55 AM 23.0 °F 11.7 °F 23.0 °F 100% 29.73 in 10.0 mi SSW 11.5 mph 17.3 mph N/A   Mostly Cloudy
2:15 AM 23.0 °F 11.7 °F 23.0 °F 100% 29.73 in 9.0 mi SSW 11.5 mph - N/A   Overcast
2:35 AM 23.0 °F 11.1 °F 23.0 °F 100% 29.73 in 8.0 mi SSW 12.7 mph 18.4 mph N/A   Mostly Cloudy
2:55 AM 24.8 °F 14.0 °F 24.8 °F 100% 29.72 in 9.0 mi SSW 11.5 mph - N/A   Mostly Cloudy
3:15 AM 24.8 °F 14.0 °F 24.8 °F 100% 29.72 in 8.0 mi SSW 11.5 mph 18.4 mph N/A   Overcast
3:35 AM 24.8 °F 14.0 °F 24.8 °F 100% 29.71 in 8.0 mi SW 11.5 mph - N/A   Overcast
3:55 AM 24.8 °F 14.6 °F 24.8 °F 100% 29.71 in 9.0 mi SW 10.4 mph 16.1 mph N/A   Overcast
4:15 AM 24.8 °F 14.6 °F 24.8 °F 100% 29.71 in 10.0 mi SW 10.4 mph - N/A   Overcast
4:35 AM 24.8 °F 16.1 °F 24.8 °F 100% 29.72 in 9.0 mi SSW 8.1 mph - N/A   Overcast
4:55 AM 24.8 °F 16.1 °F 24.8 °F 100% 29.71 in 10.0 mi SSW 8.1 mph - N/A   Overcast
5:15 AM 24.8 °F 16.1 °F 24.8 °F 100% 29.71 in 10.0 mi SW 8.1 mph - N/A   Overcast
5:35 AM 24.8 °F 16.1 °F 24.8 °F 100% 29.72 in 10.0 mi SW 8.1 mph - N/A   Overcast
5:55 AM 24.8 °F 17.9 °F 24.8 °F 100% 29.73 in 10.0 mi WSW 5.8 mph - N/A   Scattered Clouds
6:15 AM 23.0 °F 15.8 °F 23.0 °F 100% 29.73 in 10.0 mi West 5.8 mph - N/A   Clear
6:35 AM 23.0 °F 15.8 °F 23.0 °F 100% 29.73 in 10.0 mi West 5.8 mph - N/A   Scattered Clouds
6:55 AM 23.0 °F 14.7 °F 23.0 °F 100% 29.74 in 10.0 mi West 6.9 mph - N/A   Partly Cloudy
7:15 AM 24.8 °F 15.3 °F 24.8 °F 100% 29.75 in 10.0 mi West 9.2 mph - N/A   Clear
7:35 AM 28.4 °F 18.0 °F 26.6 °F 93% 29.77 in 10.0 mi WNW 12.7 mph - N/A   Clear
7:55 AM 28.4 °F 18.5 °F 26.6 °F 93% 29.77 in 10.0 mi WNW 11.5 mph - N/A   Clear
8:15 AM 28.4 °F 18.5 °F 26.6 °F 93% 29.79 in 10.0 mi WNW 11.5 mph - N/A   Clear
8:35 AM 30.2 °F 21.3 °F 28.4 °F 93% 29.81 in 10.0 mi WNW 10.4 mph - N/A   Clear
8:55 AM 30.2 °F 19.8 °F 28.4 °F 93% 29.82 in 10.0 mi NW 13.8 mph - N/A   Clear
9:15 AM 32.0 °F 21.6 °F 30.2 °F 93% 29.83 in 10.0 mi NW 15.0 mph - N/A   Clear
9:35 AM 32.0 °F 21.6 °F 30.2 °F 93% 29.84 in 10.0 mi NW 15.0 mph - N/A   Clear
9:55 AM 33.8 °F 23.9 °F 30.2 °F 87% 29.85 in 10.0 mi NW 15.0 mph - N/A   Clear
10:15 AM 35.6 °F 25.9 °F 32.0 °F 87% 29.86 in 10.0 mi NW 16.1 mph - N/A   Clear
10:35 AM 35.6 °F 24.8 °F 30.2 °F 81% 29.87 in 10.0 mi NW 19.6 mph 25.3 mph N/A   Clear
10:55 AM 37.4 °F 27.2 °F 32.0 °F 81% 29.89 in 10.0 mi NNW 19.6 mph - N/A   Clear
11:15 AM 37.4 °F 27.2 °F 32.0 °F 81% 29.90 in 10.0 mi NW 19.6 mph - N/A   Mostly Cloudy
11:35 AM 37.4 °F 27.8 °F 32.0 °F 81% 29.91 in 10.0 mi NW 17.3 mph 25.3 mph N/A   Mostly Cloudy
11:55 AM 37.4 °F 27.8 °F 30.2 °F 75% 29.92 in 10.0 mi NNW 17.3 mph 25.3 mph N/A   Mostly Cloudy
12:15 PM 37.4 °F 27.5 °F 32.0 °F 81% 29.92 in 10.0 mi NW 18.4 mph 25.3 mph N/A   Mostly Cloudy
12:35 PM 39.2 °F 30.2 °F 32.0 °F 75% 29.92 in 10.0 mi NW 17.3 mph - N/A   Mostly Cloudy
12:55 PM 39.2 °F 30.8 °F 30.2 °F 70% 29.93 in 10.0 mi NNW 15.0 mph 20.7 mph N/A   Mostly Cloudy
1:15 PM 37.4 °F 28.2 °F 30.2 °F 75% 29.93 in 10.0 mi NNW 16.1 mph - N/A   Mostly Cloudy
1:35 PM 39.2 °F 30.8 °F 32.0 °F 75% 29.93 in 10.0 mi NW 15.0 mph - N/A   Scattered Clouds
1:55 PM 39.2 °F 29.8 °F 30.2 °F 70% 29.94 in 10.0 mi NW 18.4 mph - N/A   Partly Cloudy
2:15 PM 39.2 °F 30.2 °F 30.2 °F 70% 29.94 in 10.0 mi NW 17.3 mph - N/A   Partly Cloudy
2:35 PM 37.4 °F 27.8 °F 32.0 °F 81% 29.95 in 10.0 mi NW 17.3 mph - N/A   Mostly Cloudy
2:55 PM 37.4 °F 27.5 °F 30.2 °F 75% 29.96 in 10.0 mi NNW 18.4 mph 25.3 mph N/A   Overcast
3:15 PM 35.6 °F 24.8 °F 30.2 °F 81% 29.97 in 10.0 mi NNW 19.6 mph - N/A   Overcast
3:35 PM 35.6 °F 25.9 °F 30.2 °F 81% 29.98 in 10.0 mi NNW 16.1 mph - N/A   Overcast
3:55 PM 35.6 °F 26.2 °F 30.2 °F 81% 29.98 in 10.0 mi NNW 15.0 mph - N/A   Overcast
4:15 PM 33.8 °F 24.8 °F 30.2 °F 87% 29.98 in 10.0 mi NNW 12.7 mph - N/A   Overcast
4:35 PM 33.8 °F 24.3 °F 30.2 °F 87% 29.99 in 9.0 mi NNW 13.8 mph - N/A   Overcast
4:55 PM 33.8 °F 25.8 °F 30.2 °F 87% 29.99 in 9.0 mi NNW 10.4 mph - N/A   Overcast
5:15 PM 33.8 °F 27.7 °F 30.2 °F 87% 29.99 in 9.0 mi NW 6.9 mph 16.1 mph N/A   Overcast
5:35 PM 32.0 °F 24.8 °F 30.2 °F 93% 29.99 in 9.0 mi NNW 8.1 mph - N/A   Mostly Cloudy
5:55 PM 32.0 °F - 30.2 °F 93% 30.00 in 8.0 mi Calm Calm - N/A   Clear
6:15 PM - - - N/A% 30.01 in 9.0 mi NW 5.8 mph - N/A   Scattered Clouds
6:35 PM 30.2 °F 25.4 °F 30.2 °F 100% 30.01 in 9.0 mi NW 4.6 mph - N/A   Partly Cloudy
6:55 PM 30.2 °F 25.4 °F 30.2 °F 100% 30.01 in 8.0 mi NW 4.6 mph - N/A   Clear
7:15 PM 30.2 °F 26.7 °F 30.2 °F 100% 30.02 in 8.0 mi NW 3.5 mph - N/A   Clear
7:35 PM 28.4 °F 24.6 °F 28.4 °F 100% 30.02 in 8.0 mi NW 3.5 mph - N/A   Clear
7:55 PM 28.4 °F - 28.4 °F 100% 30.03 in 7.0 mi Calm Calm - N/A   Clear
8:15 PM 28.4 °F - 28.4 °F 100% 30.03 in 7.0 mi Calm Calm - N/A   Clear
8:35 PM 28.4 °F - 28.4 °F 100% 30.03 in 7.0 mi Calm Calm - N/A   Clear
8:55 PM 26.6 °F - 26.6 °F 100% 30.03 in 7.0 mi Calm Calm - N/A   Clear
9:15 PM 26.6 °F - 26.6 °F 100% 30.04 in 5.0 mi Calm Calm - N/A   Clear
9:35 PM 26.6 °F - 26.6 °F 100% 30.04 in 6.0 mi Calm Calm - N/A   Clear
9:55 PM 24.8 °F - 24.8 °F 100% 30.05 in 6.0 mi Calm Calm - N/A   Clear
10:15 PM 24.8 °F - 24.8 °F 100% 30.05 in 4.0 mi Calm Calm - N/A   Clear
10:35 PM 24.8 °F 20.5 °F 24.8 °F 100% 30.05 in 5.0 mi ESE 3.5 mph - N/A   Clear
10:55 PM 23.0 °F - 23.0 °F 100% 30.05 in 5.0 mi Calm Calm - N/A   Clear
11:15 PM 24.8 °F 19.1 °F 24.8 °F 100% 30.04 in 4.0 mi East 4.6 mph - N/A   Clear
11:35 PM 23.0 °F 15.8 °F 23.0 °F 100% 30.03 in 4.0 mi ESE 5.8 mph - N/A   Clear
11:55 PM - - - N/A% 30.02 in 6.0 mi East 6.9 mph - N/A   Clear